{"data":{"norad_id":48231,"intl_designator":"2021-031X","name":"ONEWEB-0188","alt_names":[],"object_type":"PAYLOAD","status":"ACTIVE","operator":null,"country":"UK","launch_date":"2021-04-25","launch_site_code":"VOSTO","launch_vehicle":null,"mission":null,"orbit_class":"UNKNOWN","rcs_meters":null,"size_class":null,"mass_kg":null,"dimensions":null,"purposes":["comms"],"wikipedia_slug":null,"has_3d_model":false,"image_url":null,"decayed_at":null,"tle_current":{"epoch":"2026-09-19T23:26:24.043488Z","epoch_age_seconds":63429,"freshness":"FRESH","line1":"1 48231U 21031X   26262.97666717 -.00000158  00000+0 -45984-3 0  9990","line2":"2 48231  87.8899 270.8116 0001868  91.7065 268.4279 13.14501925260596","mean_motion":13.14501925,"eccentricity":0.0001868,"inclination_deg":87.8899,"raan_deg":270.8116,"arg_perigee_deg":91.7065,"mean_anomaly_deg":268.4279,"bstar":-0.00045984,"rev_number":26059,"period_min":109.54719598452,"perigee_km":1204.3770418861,"apogee_km":1207.2103984031,"semimajor_km":7583.9307201446,"source":"CELESTRAK","updated_at":"2026-09-20T09:00:44.596698Z"}}}